Regional Weather Roundup
Issued by NWS Green Bay, WI

Home | Current Version | Previous Version | Text Only | Print | Product List | Glossary On
Versions: 1 2 3 4 5 6 7 8 9 10 11 12 13 14 15 16 17 18 19 20 21 22 23 24 25 26 27 28 29 30 31 32 33 34 35 36 37 38 39 40 41 42 43 44 45 46 47 48 49 50
000
ASUS43 KGRB 230300
RWRGRB

NORTH-CENTRAL AND NORTHEAST WISCONSIN REGIONAL WEATHER ROUNDUP
NATIONAL WEATHER SERVICE GREEN BAY WI
900 PM CST MON JAN 22 2018

WIZ005-009-010>012-018-019-230400-
NORTH CENTRAL WISCONSIN

CITY           SKY/WX    TMP DP  RH WIND       PRES   REMARKS
IRONWOOD       LGT SNOW  23  21  92 NE12G20   29.76F FOG
MANITOWISH WTR NOT AVBL
ARBOR VITAE    NOT AVBL
EAGLE RIVER    CLOUDY    23  22  96 NE18G24   29.61F WCI   9
LAND O LAKES   NOT AVBL
RHINELANDER    LGT SNOW  25  23  92 NE7       29.62R FOG
PHILLIPS       CLOUDY    23  21  92 N15G24    29.64R
ANTIGO         NOT AVBL
TOMAHAWK       NOT AVBL
MERRILL        LGT SNOW  28  25  91 NE9       29.62S
$$

WIZ013-073-230400-
NORTHEAST WISCONSIN

CITY           SKY/WX    TMP DP  RH WIND       PRES   REMARKS
IRON MOUNTAIN  FLURRIES  28  23  81 N16G22    29.61S
MARINETTE      FLURRIES  29  27  92 NE16G23   29.59F
$$

WIZ017-030-035>037-045-230400-
CENTRAL WISCONSIN

CITY           SKY/WX    TMP DP  RH WIND       PRES   REMARKS
MEDFORD        NOT AVBL
WAUSAU         CLOUDY    28  25  88 N9        29.57S
MOSINEE        NOT AVBL
MARSHFIELD     CLOUDY    29  27  92 NE13      29.57R
WISC RAPIDS    NOT AVBL
STEVENS POINT  NOT AVBL
WAUPACA        NOT AVBL
SHAWANO        CLOUDY    32  28  85 NE16      29.56F
CLINTONVILLE   NOT AVBL
WAUTOMA        CLOUDY    30  28  92 N14G22    29.53S
$$

WIZ038-039-048-051-230400-
FOX VALLEY

CITY           SKY/WX    TMP DP  RH WIND       PRES   REMARKS
NWS GREEN BAY  CLOUDY    31  28  89 NE18G30   29.54S
APPLETON       CLOUDY    30  30 100 N15G24    29.52F
OSHKOSH        CLOUDY    31  29  92 NE18G29   29.50F
FOND DU LAC    CLOUDY    32  29  88 N17G25    29.48F
$$

WIZ022-050-052-230400-
EAST CENTRAL WISCONSIN

CITY           SKY/WX    TMP DP  RH WIND       PRES   REMARKS
EPHRAIM        NOT AVBL
WASHINGTON ISL NOT AVBL
STURGEON BAY   CLOUDY    31  30  96 N17       29.52F FOG
MANITOWOC      MIX PCPN  33  32  96 N14G23    29.50F FOG
SHEBOYGAN      CLOUDY    34  34 100 N13G18    29.49S FOG
$$

LMZ563-521-522-541>543-230400-
LAKESHORE

STATION/POSITION TIME  TEMP    WIND        PRES    VSBY  WAVE
                       AIR SEA DIR/SP/G                  HT/PER
                 (UTC) (F)     (DEG/KT/KT) (MB)    (MI)  (FT/S)
SHEBOYGAN LKSHOR 0200   34     350/ 21/ 25  998.7F
KEWAUNEE LKSHORE 0230   33      20/ 13/ 20  998.9
NORTHPORT PIER   0240   30      30/  7/ 15 1001.7F
MENOMINEE LKSHOR 0230   29      10/ 25/ 29 1001.2
$$




USA.gov is the U.S. government's official web portal to all federal, state and local government web resources and services.